New Orleans Lakefront, LA

10:40 AM CST on November 20, 2017 (GMT -0600)
Lakefront

Weather History for KNEW - February, 2014

Change the Weather History Date:

Wednesday, February 5, 2014

  Actual Average Record
Temperature  
Mean Temperature 49 °F 55 °F  
Max Temperature 58 °F 64 °F 79 °F (1957)
Min Temperature 40 °F 46 °F 16 °F (1996)
Degree Days  
Heating Degree Days 16 11  
Month to date heating degree days 34 55  
Since 1 July heating degree days 1121 911  
Cooling Degree Days 0 1  
Month to date cooling degree days 3 5  
Year to date cooling degree days 3 21  
Moisture  
Dew Point 41 °F    
Average Humidity 77    
Maximum Humidity 93    
Minimum Humidity 61    
Precipitation  
Precipitation T in 0.19 in 3.64 in (1985)
Month to date precipitation 0.96 0.97  
Year to date precipitation 3.68 6.12  
Snow  
Snow 0.00 in - - ()
Month to date snowfall 0.0  
Since 1 July snowfall T  
Snow Depth 0.00 in    
Sea Level Pressure  
Sea Level Pressure 30.18 in    
Wind  
Wind Speed 16 mph (NNW)    
Max Wind Speed 24 mph    
Max Gust Speed 30 mph    
Visibility 10 miles    
Events Rain    
T = Trace of Precipitation, MM = Missing Value Source: NWS Daily Summary

Daily Weather History Graph

Daily Weather History Graph

Search for Another Location

Airport or City:

Trip Planner

Search our weather history database for the weather conditions in past years. The results will help you decide how hot, cold, wet, or windy it might be!

Date:

Astronomy

Feb. 05, 2014 Rise Set
Actual Time 6:47 AM CST 5:40 PM CST
Civil Twilight 6:23 AM CST 6:05 PM CST
Nautical Twilight 5:54 AM CST 6:34 PM CST
Astronomical Twilight 5:26 AM CST 7:02 PM CST
Moon 10:33 AM CST (2/5) No Moon Set
Length of Visible Light 11h 42m
Length of Day
10h 52m
Waxing Crescent, 39% of the Moon is Illuminated
Feb 5
Waxing Crescent
Feb 6
First Quarter
Feb 14
Full
Feb 22
Last Quarter
Mar 1
New

Hourly Weather History & Observations

Time (CST) Temp. Windchill Dew Point Humidity Pressure Visibility Wind Dir Wind Speed Gust Speed Precip Events Conditions
12:01 AM 55.0 °F - 54.0 °F 96% 29.99 in 3.0 mi WNW 15.0 mph - 0.00 in Rain Light Rain
12:53 AM 52.0 °F - 51.1 °F 97% 30.00 in 10.0 mi WNW 17.3 mph - 0.00 in   Overcast
1:06 AM 52.0 °F - 50.0 °F 93% 30.03 in 10.0 mi WNW 19.6 mph - N/A   Overcast
1:15 AM 52.0 °F - 50.0 °F 93% 30.03 in 10.0 mi WNW 19.6 mph - N/A   Overcast
1:28 AM 52.0 °F - 48.9 °F 89% 30.04 in 10.0 mi NW 19.6 mph - N/A   Overcast
1:53 AM 51.1 °F - 48.9 °F 92% 30.03 in 10.0 mi NW 18.4 mph - N/A   Overcast
2:01 AM 51.1 °F - 48.9 °F 92% 30.05 in 10.0 mi NW 19.6 mph - N/A   Overcast
2:39 AM 50.0 °F - 48.0 °F 93% 30.07 in 10.0 mi NW 19.6 mph - N/A   Overcast
2:53 AM 50.0 °F - 46.9 °F 89% 30.06 in 10.0 mi NW 17.3 mph - N/A   Overcast
3:53 AM 48.9 °F - 46.9 °F 93% 30.08 in 10.0 mi NNW 16.1 mph - N/A   Mostly Cloudy
4:31 AM 48.0 °F - 44.1 °F 86% 30.10 in 10.0 mi NNW 17.3 mph - N/A   Overcast
4:53 AM 48.0 °F - 44.1 °F 86% 30.09 in 10.0 mi NNW 17.3 mph - N/A   Overcast
5:53 AM 48.0 °F - 44.1 °F 86% 30.11 in 10.0 mi NNW 17.3 mph - N/A   Mostly Cloudy
6:17 AM 46.9 °F - 43.0 °F 86% 30.14 in 10.0 mi NNW 18.4 mph - N/A   Scattered Clouds
6:51 AM 46.4 °F 39.5 °F 42.8 °F 87% 30.16 in 10.0 mi NNW 17.3 mph - N/A   Mostly Cloudy
6:53 AM 46.0 °F 39.0 °F 42.1 °F 86% 30.15 in 10.0 mi NNW 17.3 mph - N/A   Mostly Cloudy
7:23 AM 46.0 °F 39.3 °F 41.0 °F 83% 30.19 in 10.0 mi NNW 16.1 mph - N/A   Overcast
7:53 AM 46.0 °F 39.0 °F 41.0 °F 83% 30.17 in 10.0 mi NNW 17.3 mph - N/A   Overcast
8:53 AM 46.9 °F - 41.0 °F 80% 30.20 in 10.0 mi NNW 19.6 mph - N/A   Scattered Clouds
9:00 AM 46.0 °F 38.3 °F 41.0 °F 83% 30.22 in 10.0 mi NNW 20.7 mph - N/A   Mostly Cloudy
9:53 AM 46.9 °F - 39.9 °F 77% 30.21 in 10.0 mi NNW 19.6 mph - N/A   Mostly Cloudy
10:05 AM 46.9 °F - 39.9 °F 77% 30.23 in 10.0 mi NNW 17.3 mph - N/A   Mostly Cloudy
10:28 AM 48.0 °F - 39.9 °F 74% 30.23 in 10.0 mi NNW 16.1 mph - N/A   Scattered Clouds
10:53 AM 48.9 °F - 39.9 °F 71% 30.21 in 10.0 mi NNW 20.7 mph - N/A   Partly Cloudy
11:53 AM 51.1 °F - 39.9 °F 66% 30.22 in 10.0 mi NNW 17.3 mph - N/A   Clear
12:53 PM 51.1 °F - 41.0 °F 68% 30.19 in 10.0 mi NNW 23.0 mph - N/A   Clear
1:53 PM 51.1 °F - 39.9 °F 66% 30.18 in 10.0 mi NNW 19.6 mph - N/A   Partly Cloudy
2:53 PM 52.0 °F - 39.0 °F 61% 30.20 in 10.0 mi NNW 17.3 mph - N/A   Partly Cloudy
3:53 PM 52.0 °F - 39.0 °F 61% 30.21 in 10.0 mi North 17.3 mph - N/A   Partly Cloudy
4:53 PM 50.0 °F - 37.9 °F 63% 30.22 in 10.0 mi North 18.4 mph - N/A   Clear
5:53 PM 48.0 °F - 37.0 °F 66% 30.23 in 10.0 mi North 23.0 mph - N/A   Clear
6:53 PM 45.0 °F 37.1 °F 35.1 °F 68% 30.25 in 10.0 mi North 19.6 mph - N/A   Clear
7:53 PM 45.0 °F 36.9 °F 35.1 °F 68% 30.26 in 10.0 mi NNE 20.7 mph - N/A   Partly Cloudy
8:14 PM 44.1 °F 35.7 °F 35.1 °F 71% 30.30 in 10.0 mi NNE 20.7 mph - N/A   Mostly Cloudy
8:53 PM 43.0 °F 35.1 °F 35.1 °F 74% 30.27 in 10.0 mi North 17.3 mph - N/A   Mostly Cloudy
9:30 PM 43.0 °F 33.8 °F 34.0 °F 71% 30.31 in 10.0 mi NNE 23.0 mph - N/A   Scattered Clouds
9:53 PM 43.0 °F 34.0 °F 34.0 °F 71% 30.30 in 10.0 mi North 21.9 mph - N/A   Mostly Cloudy
10:14 PM 42.1 °F 33.1 °F 33.1 °F 70% 30.32 in 10.0 mi North 20.7 mph - N/A   Overcast
10:24 PM 42.1 °F 33.6 °F 33.1 °F 70% 30.33 in 10.0 mi North 18.4 mph - N/A   Overcast
10:31 PM 42.1 °F 33.9 °F 33.1 °F 70% 30.32 in 10.0 mi North 17.3 mph 26.5 mph N/A   Overcast
10:53 PM 42.1 °F 33.6 °F 33.1 °F 70% 30.30 in 10.0 mi North 18.4 mph - N/A   Overcast
11:53 PM 42.1 °F 33.9 °F 33.1 °F 70% 30.31 in 10.0 mi NNE 17.3 mph - N/A   Overcast